EW4556 Weather Reports


Display with metric or nautical units.
time (UTC)temp
F
wind
direction
speed
MPH
gust
MPH
rain 1hr
in
rain 24hr
in
rain mn
in
humidity
%
barometer
mb
20181023163013 56 205 3.0 10.0 0.00 0.00 0.00 51 1012.8
20181023160203 54 220 1.0 7.0 0.00 0.00 0.00 62 1013.3
20181023154616 53 227 2.0 5.0 0.00 0.00 0.00 65 1013.7
20181023153058 52 288 2.0 7.0 0.00 0.00 0.00 69 1014.1
20181023151603 51 165 1.0 4.0 0.00 0.00 0.00 71 1014.2
20181023150110 50 163 1.0 4.0 0.00 0.00 0.00 72 1014.3
20181023144608 49 67 0.0 2.0 0.00 0.00 0.00 74 1014.4
20181023143044 47 111 1.0 3.0 0.00 0.00 0.00 79 1014.8
20181023141606 46 250 0.0 2.0 0.00 0.00 0.00 78 1015.0
20181023140027 45 254 1.0 4.0 0.00 0.00 0.00 81 1015.1
20181023134611 44 101 0.0 2.0 0.00 0.00 0.00 83 1015.1
20181023133021 43 101 1.0 3.0 0.00 0.00 0.00 86 1015.3
20181023131519 42 313 0.0 2.0 0.00 0.00 0.00 88 1015.4
20181023130021 41 313 0.0 1.0 0.00 0.00 0.00 90 1015.5
20181023124531 40 313 0.0 0.0 0.00 0.00 0.00 90 1015.6
20181023123031 39 313 0.0 0.0 0.00 0.00 0.00 91 1015.5
20181023121543 39 313 0.0 0.0 0.00 0.00 0.00 92 1015.5
20181023120039 39 313 0.0 0.0 0.00 0.00 0.00 91 1015.4
20181023114518 39 313 0.0 0.0 0.00 0.00 0.00 91 1015.3
20181023113022 39 313 0.0 0.0 0.00 0.00 0.00 91 1015.2
20181023111526 39 313 0.0 0.0 0.00 0.00 0.00 91 1015.4
20181023110028 39 313 0.0 0.0 0.00 0.00 0.00 91 1015.4
20181023104505 39 313 0.0 0.0 0.00 0.00 0.00 91 1015.5
20181023103004 39 313 0.0 0.0 0.00 0.00 0.00 90 1015.7
20181023101510 39 313 0.0 0.0 0.00 0.00 0.00 90 1015.7
20181023100121 39 313 0.0 0.0 0.00 0.00 0.00 90 1015.7
20181023094602 39 313 0.0 0.0 0.00 0.00 0.00 89 1016.0
20181023093204 39 313 0.0 0.0 0.00 0.00 0.00 90 1015.9
20181023091653 39 313 0.0 0.0 0.00 0.00 0.00 90 1016.2
20181023090236 40 313 0.0 0.0 0.00 0.00 0.00 90 1016.2
20181023084622 40 313 0.0 0.0 0.00 0.00 0.00 89 1016.4
20181023083135 40 313 0.0 0.0 0.00 0.00 0.00 89 1016.5
20181023081610 40 313 0.0 0.0 0.00 0.00 0.00 89 1016.8
20181023080233 40 313 0.0 0.0 0.00 0.00 0.00 89 1017.1
20181023074648 40 313 0.0 0.0 0.00 0.00 0.00 89 1017.0
20181023073114 40 313 0.0 0.0 0.00 0.00 0.00 88 1017.1
20181023071622 40 313 0.0 0.0 0.00 0.00 0.00 88 1017.3
20181023070049 40 313 0.0 0.0 0.00 0.00 0.00 88 1017.5
20181023064611 40 313 0.0 0.0 0.00 0.00 0.00 88 1017.7
20181023063100 41 313 0.0 0.0 0.00 0.00 0.00 87 1017.9
20181023061616 41 313 0.0 0.0 0.00 0.00 0.00 86 1018.0
20181023060058 40 313 0.0 0.0 0.00 0.00 0.00 86 1018.1
20181023054629 40 313 0.0 0.0 0.00 0.00 0.00 86 1018.2
20181023053206 40 313 0.0 0.0 0.00 0.00 0.00 86 1018.3
20181023051551 40 313 0.0 0.0 0.00 0.00 0.00 85 1018.3
20181023050110 40 313 0.0 0.0 0.00 0.00 0.00 87 1018.5
20181023044609 40 313 0.0 0.0 0.00 0.00 0.00 86 1018.5
20181023043033 40 313 0.0 0.0 0.00 0.00 0.00 86 1018.7
20181023041535 40 313 0.0 0.0 0.00 0.00 0.00 85 1018.8
20181023040119 40 313 0.0 1.0 0.00 0.00 0.00 85 1018.9
20181023034608 40 313 0.0 1.0 0.00 0.00 0.00 85 1019.0
20181023033042 40 313 0.0 0.0 0.00 0.00 0.00 85 1019.0
20181023031538 40 313 0.0 0.0 0.00 0.00 0.00 85 1019.2
20181023030051 40 313 0.0 1.0 0.00 0.00 0.00 84 1019.2
20181023024525 40 313 0.0 0.0 0.00 0.00 0.00 84 1019.2
20181023023024 40 313 0.0 1.0 0.00 0.00 0.00 85 1019.3
20181023020036 40 213 0.0 0.0 0.00 0.00 0.00 85 1019.2
20181023014522 39 213 0.0 0.0 0.00 0.00 0.00 86 1019.3
20181023013050 39 213 0.0 0.0 0.00 0.00 0.00 86 1019.4
20181023011548 39 213 0.0 0.0 0.00 0.00 0.00 86 1019.5
20181023010035 39 213 0.0 0.0 0.00 0.00 0.00 85 1019.4
20181023004556 39 213 0.0 0.0 0.00 0.00 0.00 86 1019.3
20181023003023 38 213 0.0 0.0 0.00 0.00 0.00 88 1019.4
20181023001551 38 213 0.0 0.0 0.00 0.00 0.00 87 1019.3
20181022234533 39 213 0.0 0.0 0.00 0.00 0.00 84 1019.3
20181022233032 39 213 0.0 0.0 0.00 0.00 0.00 82 1019.3
20181022231529 40 213 0.0 0.0 0.00 0.00 0.00 82 1019.4
20181022230023 41 213 0.0 0.0 0.00 0.00 0.00 81 1019.2
20181022224523 42 213 0.0 0.0 0.00 0.00 0.00 80 1019.2
20181022223022 42 213 0.0 1.0 0.00 0.00 0.00 80 1019.2
20181022221514 42 213 0.0 0.0 0.00 0.00 0.00 76 1019.0
20181022220020 43 213 0.0 1.0 0.00 0.00 0.00 77 1019.0
20181022214527 43 213 0.0 2.0 0.00 0.00 0.00 75 1019.1
20181022213033 44 159 0.0 2.0 0.00 0.00 0.00 74 1019.2
20181022211511 44 227 1.0 6.0 0.00 0.00 0.00 72 1019.2
20181022210008 44 222 1.0 3.0 0.00 0.00 0.00 73 1019.2
20181022204508 44 243 1.0 3.0 0.00 0.00 0.00 72 1019.2
20181022203043 44 265 1.0 5.0 0.00 0.00 0.00 72 1019.2
20181022201509 44 234 1.0 3.0 0.00 0.00 0.00 72 1019.1
20181022200233 44 227 0.0 2.0 0.00 0.00 0.00 73 1019.0
20181022194611 44 227 0.0 2.0 0.00 0.00 0.00 70 1019.1
20181022193151 44 227 1.0 2.0 0.00 0.00 0.00 67 1019.3
20181022191632 44 227 1.0 2.0 0.00 0.00 0.00 68 1019.5
20181022190159 44 206 1.0 3.0 0.00 0.00 0.00 70 1019.7
20181022184737 44 252 0.0 4.0 0.00 0.00 0.00 70 1019.6
20181022183235 44 340 0.0 5.0 0.00 0.00 0.00 67 1019.6
20181022181718 43 241 2.0 7.0 0.00 0.00 0.00 68 1019.9
20181022180111 43 220 2.0 5.0 0.00 0.00 0.00 68 1020.1
20181022174553 43 191 0.0 3.0 0.00 0.00 0.00 72 1020.2
20181022173102 42 310 0.0 4.0 0.00 0.00 0.00 73 1020.4
20181022171844 41 222 1.0 3.0 0.00 0.00 0.00 75 1020.6
20181022170052 41 180 1.0 8.0 0.00 0.00 0.00 77 1020.9
20181022164608 41 249 0.0 2.0 0.00 0.00 0.00 78 1021.1